WetterOnline ( https://www.wetteronline.de )

Wetter aktuell Stuttgart

Aktuelles Wetter: Schnarrenberg/Stuttgart (315m)

6-stündlich | Neueste Meldungen
Ortszeit Temperatur Wetter
Fr, 19.07. 2:00 20.4° C bewölkt
Do, 18.07. 20:00 26.3° C leicht bewölkt
Do, 18.07. 14:00 25.8° C wolkig
Do, 18.07. 8:00 19.0° C leicht bewölkt
Do, 18.07. 2:00 17.4° C wolkig
Mi, 17.07. 20:00 23.4° C leicht bewölkt
Mi, 17.07. 14:00 23.2° C wolkig
Mi, 17.07. 8:00 18.5° C wolkenlos
Ortszeit Temperatur Wetter
Fr, 19.07. 7:00 18.0° C bewölkt
Fr, 19.07. 6:50 18.0° C bewölkt
Fr, 19.07. 6:40 18.2° C bedeckt
Fr, 19.07. 6:30 18.2° C wolkig
Fr, 19.07. 6:20 18.2° C wolkig
Fr, 19.07. 6:10 17.8° C bedeckt
Fr, 19.07. 6:00 18.0° C wolkig
Fr, 19.07. 5:30 18.4° C bewölkt
Fr, 19.07. 5:00 18.7° C bewölkt
Fr, 19.07. 4:30 18.7° C wolkig
Fr, 19.07. 4:00 19.1° C leicht bewölkt
Ortszeit Relative Feuchte Sichtweite
Fr, 19.07. 2:00 69% 60 km
Do, 18.07. 20:00 46% 60 km
Do, 18.07. 14:00 44% >70 km
Do, 18.07. 8:00 69% 65 km
Do, 18.07. 2:00 79% 50 km
Mi, 17.07. 20:00 48% 50 km
Mi, 17.07. 14:00 47% 60 km
Mi, 17.07. 8:00 75% 45 km
Ortszeit Relative Feuchte Sichtweite
Fr, 19.07. 7:00 82% 30 km
Fr, 19.07. 6:50 82% -
Fr, 19.07. 6:40 80% -
Fr, 19.07. 6:30 79% 50 km
Fr, 19.07. 6:20 79% -
Fr, 19.07. 6:10 81% -
Fr, 19.07. 6:00 81% 45 km
Fr, 19.07. 5:30 77% 50 km
Fr, 19.07. 5:00 76% 55 km
Fr, 19.07. 4:30 76% 50 km
Fr, 19.07. 4:00 75% 60 km
Ortszeit Niederschlagsmenge Niederschlagsart
Fr, 19.07. 2:00 0.0 l/m2 in 6 Std. -
Do, 18.07. 20:00 0.0 l/m2 in 12 Std. -
Do, 18.07. 14:00 0.0 l/m2 in 6 Std. -
Do, 18.07. 8:00 0.0 l/m2 in 12 Std. -
Do, 18.07. 2:00 0.0 l/m2 in 6 Std. -
Mi, 17.07. 20:00 0.0 l/m2 in 12 Std. -
Mi, 17.07. 14:00 0.0 l/m2 in 6 Std. -
Mi, 17.07. 8:00 0.0 l/m2 in 12 Std. -
Ortszeit Niederschlagsmenge Niederschlagsart
Fr, 19.07. 7:00 0.0 l/m2 in 1 Std. -
Fr, 19.07. 6:50 keine Meldung -
Fr, 19.07. 6:40 keine Meldung -
Fr, 19.07. 6:30 0.0 l/m2 in 30 Min -
Fr, 19.07. 6:20 keine Meldung -
Fr, 19.07. 6:10 keine Meldung -
Fr, 19.07. 6:00 0.0 l/m2 in 1 Std. -
Fr, 19.07. 5:30 0.0 l/m2 in 30 Min -
Fr, 19.07. 5:00 0.0 l/m2 in 1 Std. -
Fr, 19.07. 4:30 0.0 l/m2 in 30 Min -
Fr, 19.07. 4:00 0.0 l/m2 in 1 Std. -
Ortszeit Stärke Spitze Richtung
km/h Bft. km/h Grad Sektor
Fr, 19.07. 2:00 4 1 14 300° NW
Do, 18.07. 20:00 9 2 20 30° NO
Do, 18.07. 14:00 11 2 22 120° SO
Do, 18.07. 8:00 2 1 7 330° NW
Do, 18.07. 2:00 6 1 11 290° W
Mi, 17.07. 20:00 7 2 30 70° O
Mi, 17.07. 14:00 13 3 24 320° NW
Mi, 17.07. 8:00 4 1 14 160° S
Ortszeit Stärke Spitze Richtung
km/h Bft. km/h Grad Sektor
Fr, 19.07. 7:00 4 1 4 170° S
Fr, 19.07. 6:50 4 1 - 170° S
Fr, 19.07. 6:40 2 1 - 170° S
Fr, 19.07. 6:30 0 0 4 - -
Fr, 19.07. 6:20 0 0 - 270° W
Fr, 19.07. 6:10 0 0 - 260° W
Fr, 19.07. 6:00 0 0 7 - -
Fr, 19.07. 5:30 6 1 7 270° W
Fr, 19.07. 5:00 7 2 11 250° W
Fr, 19.07. 4:30 7 2 11 260° W
Fr, 19.07. 4:00 4 1 7 270° W
Ortszeit Untergrenze Bedeckung Gattung
total tief tief mittel hoch
Fr, 19.07. 2:00 2100 m 7/8 7/8 - - -
Do, 18.07. 20:00 9000 m 3/8 0/8 - - -
Do, 18.07. 14:00 1800 m 7/8 5/8 - - -
Do, 18.07. 8:00 9000 m 6/8 0/8 - - -
Do, 18.07. 2:00 9000 m 7/8 0/8 - - -
Mi, 17.07. 20:00 1800 m 3/8 3/8 - - -
Mi, 17.07. 14:00 1380 m 6/8 6/8 - - -
Mi, 17.07. 8:00 - 0/8 0/8 - - -
Ortszeit Bedeckungsgrad in Achtel und Wolkenuntergrenze
Fr, 19.07. 7:00 5(5700m) 8(10500m) 8(10500m)
Fr, 19.07. 6:50 5(5700m) 8(10500m) 8(10500m)
Fr, 19.07. 6:40 8
Fr, 19.07. 6:30 8(10500m) 8(10500m)
Fr, 19.07. 6:20 8(10500m) 8(10500m)
Fr, 19.07. 6:10 8
Fr, 19.07. 6:00 1(1500m) 7(10500m) 7(10500m)
Fr, 19.07. 5:30 6(1500m) 6(9000m) 8(10500m)
Fr, 19.07. 5:00 6(1500m) 8(9000m) 8(10500m)
Fr, 19.07. 4:30 1(1500m) 8(9000m)
Fr, 19.07. 4:00 4(9000m)
Ortszeit Luftdruck NN (hPa) Tendenz (hPa in 3 Std.)
Fr, 19.07. 2:00 1020 - 0,1
Do, 18.07. 20:00 1019 - 0,5
Do, 18.07. 14:00 1020 - 0,6
Do, 18.07. 8:00 1022 + 0,5
Do, 18.07. 2:00 1022 0,0
Mi, 17.07. 20:00 1021 0,0
Mi, 17.07. 14:00 1021 0,0
Mi, 17.07. 8:00 1021 + 1,5
Ortszeit Luftdruck NN (hPa) Tendenz (hPa in 3 Std.)
Fr, 19.07. 7:00 1020 + 0,1
Fr, 19.07. 6:50 1020 keine Meldung
Fr, 19.07. 6:40 1020 keine Meldung
Fr, 19.07. 6:30 1020 - 0,1
Fr, 19.07. 6:20 1020 keine Meldung
Fr, 19.07. 6:10 1020 keine Meldung
Fr, 19.07. 6:00 1020 - 0,4
Fr, 19.07. 5:30 1020 - 0,7
Fr, 19.07. 5:00 1019 - 0,9
Fr, 19.07. 4:30 1020 - 0,7
Fr, 19.07. 4:00 1020 - 0,7
Ortszeit Schneehöhe (cm)
Fr, 19.07. 2:00 0
Do, 18.07. 20:00 0
Do, 18.07. 14:00 0
Do, 18.07. 8:00 0
Do, 18.07. 2:00 0
Mi, 17.07. 20:00 0
Mi, 17.07. 14:00 0
Mi, 17.07. 8:00 0
Ortszeit Schneehöhe (cm)
Fr, 19.07. 7:00 0
Fr, 19.07. 6:50 0
Fr, 19.07. 6:40 -
Fr, 19.07. 6:30 0
Fr, 19.07. 6:20 0
Fr, 19.07. 6:10 -
Fr, 19.07. 6:00 0
Fr, 19.07. 5:30 0
Fr, 19.07. 5:00 0
Fr, 19.07. 4:30 0
Fr, 19.07. 4:00 0
Link zu dieser Seite / Seite empfehlen

Das Wetter in ...